Weather History for KRVS - July, 2013

Change the Weather History Date:

Saturday, July 20, 2013

  Actual Average (KTUL) Record (KTUL)
Temperature  
Mean Temperature 85 °F 83 °F  
Max Temperature 98 °F 94 °F 109 °F (1936)
Min Temperature 72 °F 73 °F 56 °F (1971)
Cooling Degree Days 20 18  
Month to date cooling degree days 350  
Year to date cooling degree days 963  
Since 1 June cooling degree days 729  
Growing Degree Days 35 (Base 50)    
Moisture  
Dew Point 69 °F    
Average Humidity 60    
Maximum Humidity 87    
Minimum Humidity 37    
Precipitation  
Precipitation 0.00 in 0.10 in 2.35 in (1906)
Month to date precipitation 2.29  
Year to date precipitation 23.51  
Sea Level Pressure  
Sea Level Pressure 29.91 in    
Wind  
Wind Speed 4 mph (South)    
Max Wind Speed 12 mph    
Max Gust Speed 20 mph    
Visibility 10 miles    
Events      
T = Trace of Precipitation, MM = Missing Value Source: NWS Daily Summary

Daily Weather History Graph

Daily Weather History Graph

Search for Another Location

Airport or City:

Trip Planner

Search our weather history database for the weather conditions in past years. The results will help you decide how hot, cold, wet, or windy it might be!

Date:

Astronomy

Jul. 20, 2013 Rise Set
Actual Time 6:22 AM CDT 8:37 PM CDT
Civil Twilight 5:53 AM CDT 9:07 PM CDT
Nautical Twilight 5:17 AM CDT 9:42 PM CDT
Astronomical Twilight 4:38 AM CDT 10:21 PM CDT
Moon 6:42 PM CDT (7/20) 4:03 AM CDT (7/20)
Length of Visible Light 15h 13m
Length of Day
14h 15m
Waxing Gibbous, 94% of the Moon is Illuminated
Jul 20
Waxing Gibbous
Jul 22
Full
Jul 29
Last Quarter
Aug 6
New
Aug 14
First Quarter

Hourly Weather History & Observations

Time (CDT) Temp. Heat Index Dew Point Humidity Pressure Visibility Wind Dir Wind Speed Gust Speed Precip Events Conditions
12:53 AM 78.1 °F - 70.0 °F 76% 29.97 in 10.0 mi Calm Calm - N/A   Clear
1:53 AM 75.9 °F - 70.0 °F 82% 29.97 in 10.0 mi Calm Calm - N/A   Clear
2:53 AM 77.0 °F - 68.0 °F 74% 29.96 in 10.0 mi SSW 3.5 mph - N/A   Clear
3:53 AM 75.9 °F - 68.0 °F 76% 29.96 in 10.0 mi South 4.6 mph - N/A   Clear
4:53 AM 73.9 °F - 68.0 °F 82% 29.95 in 10.0 mi SW 3.5 mph - N/A   Clear
5:53 AM 72.0 °F - 68.0 °F 87% 29.95 in 10.0 mi Calm Calm - N/A   Clear
7:53 AM 75.9 °F - 70.0 °F 82% 29.95 in 10.0 mi SSW 4.6 mph - N/A   Clear
8:53 AM 80.1 °F 83.6 °F 71.1 °F 74% 29.95 in 10.0 mi Calm Calm - N/A   Clear
9:53 AM 84.0 °F 89.0 °F 71.1 °F 65% 29.94 in 10.0 mi SSW 6.9 mph - N/A   Clear
10:53 AM 88.0 °F 93.8 °F 71.1 °F 57% 29.95 in 10.0 mi Variable 3.5 mph - N/A   Mostly Cloudy
11:53 AM 91.0 °F 97.6 °F 71.1 °F 52% 29.94 in 10.0 mi Variable 4.6 mph - N/A   Clear
12:53 PM 93.9 °F 100.8 °F 71.1 °F 47% 29.93 in 10.0 mi SE 9.2 mph - N/A   Clear
1:53 PM 96.1 °F 102.9 °F 70.0 °F 43% 29.91 in 10.0 mi SSE 9.2 mph - N/A   Clear
2:53 PM 95.0 °F 101.3 °F 70.0 °F 44% 29.88 in 10.0 mi South 11.5 mph 17.3 mph N/A   Scattered Clouds
3:53 PM 98.1 °F 104.4 °F 69.1 °F 39% 29.86 in 10.0 mi South 9.2 mph 16.1 mph N/A   Clear
4:53 PM 97.0 °F 101.0 °F 66.9 °F 37% 29.83 in 10.0 mi South 10.4 mph - N/A   Clear
5:53 PM 96.1 °F 101.0 °F 68.0 °F 40% 29.82 in 10.0 mi SSW 11.5 mph 19.6 mph N/A   Clear
6:53 PM 96.1 °F 101.0 °F 68.0 °F 40% 29.83 in 10.0 mi South 10.4 mph - N/A   Mostly Cloudy
7:53 PM 91.0 °F 94.3 °F 66.9 °F 45% 29.84 in 10.0 mi SSW 5.8 mph - N/A   Clear
8:53 PM 86.0 °F 90.1 °F 69.1 °F 57% 29.84 in 10.0 mi Calm Calm - N/A   Clear
9:53 PM 84.9 °F 89.4 °F 70.0 °F 61% 29.87 in 10.0 mi SSW 3.5 mph - N/A   Clear
10:53 PM 86.0 °F 90.7 °F 70.0 °F 59% 29.88 in 10.0 mi South 4.6 mph - N/A   Clear
11:53 PM 84.9 °F 90.1 °F 71.1 °F 63% 29.88 in 10.0 mi SSE 3.5 mph - N/A   Mostly Cloudy